Temp
8 8 8 8 8 8 7 7 7 7 8 8 7 7 7 7 7 7 7 7 7 7 7 7 7 7 8 10 12 14 14 14 14 14 15 16 16 17 16 17 17 15 17 16 16 17 17
8 8 8 7 7 7 7 7 7 7 7 7 7 7 6 7 7 7 7 7 7 7 7 7 7 7 8 8 13 13 13 13 13 13 15 16 17 17 16 17 16 17 16 17 17 16 17
7 7 7 7 7 7 7 6 6 6 6 7 7 7 7 6 6 6 6 6 7 7 7 7 7 8 8 10 12 12 11 12 13 13 15 15 16 16 16 16 17 17 16 16 16 16 16
7 7 7 7 6 6 6 6 6 6 6 6 7 7 7 6 6 6 6 6 8 7 7 7 8 8 8 10 10 10 11 11 11 13 13 15 15 16 16 17 16 15 16 14 16 17 17
7 7 6 6 6 6 6 6 6 6 7 7 6 6 6 6 6 6 6 6 8 8 7 8 8 9 10 9 10 10 11 11 12 12 12 13 14 14 15 14 14 15 15 14 16 17 17
6 6 6 6 6 6 6 6 6 6 6 6 6 6 6 6 6 6 6 7 8 8 8 8 8 8 9 12 11 11 11 11 12 13 12 13 11 13 13 13 13 14 13 15 17 18 17
6 6 6 6 6 6 6 6 6 6 6 6 6 5 5 5 5 5 5 6 8 10 6 8 9 9 11 12 11 12 11 11 11 11 11 12 11 13 15 14 15 16 17 16 17 17 16
6 6 6 5 6 6 6 6 6 6 6 5 5 5 5 5 5 5 5 6 5 3 3 7 7 7 8 8 8 10 10 11 10 10 12 12 12 16 16 16 14 13 14 15 17 16 14
5 6 6 6 6 6 6 6 5 6 6 5 5 5 5 5 5 5 4 5 4 3 4 7 8 8 8 7 8 10 11 11 11 10 12 12 14 15 16 14 13 13 12 13 15 15 14
5 5 5 6 5 5 5 5 5 5 5 5 5 4 4 4 5 4 6 4 3 3 4 8 9 5 8 8 6 9 10 10 10 10 11 12 15 15 14 15 14 12 14 14 14 13 12
5 5 5 5 5 5 5 5 5 5 5 4 4 4 4 4 4 5 5 4 3 4 5 9 7 6 9 8 8 10 9 8 8 9 9 11 13 13 14 14 15 14 14 14 14 12 12
5 5 5 5 5 4 5 5 5 5 4 4 4 4 4 4 4 4 4 3 3 5 5 6 7 7 7 8 9 8 8 9 9 8 9 10 15 14 15 15 15 16 14 14 13 13 11
5 5 5 5 5 5 5 4 4 5 4 4 4 4 4 3 4 3 4 5 5 5 8 5 5 7 7 7 8 8 8 5 3 6 9 9 9 13 14 13 14 14 12 12 12 11 13
5 5 5 5 5 5 4 4 4 4 4 3 3 3 4 3 3 4 4 6 4 7 6 6 6 6 6 6 6 7 7 6 3 2 4 10 11 9 13 14 13 11 11 13 12 14 15
5 4 4 5 4 4 4 4 4 4 4 3 4 3 3 3 3 3 5 4 5 5 4 4 5 5 6 5 5 6 6 4 2 2 2 4 10 11 11 14 15 13 11 13 11 13 13
4 4 4 4 4 4 4 4 4 4 3 3 2 2 3 3 3 3 4 4 5 3 5 5 3 5 3 4 4 5 4 3 3 4 2 4 5 11 12 13 14 13 14 11 10 11 13
4 4 4 4 4 4 4 4 4 4 3 3 3 4 3 3 3 4 3 4 3 4 4 4 4 3 3 3 4 4 4 5 3 4 4 3 4 8 9 11 12 11 10 11 13 14 13
4 4 4 4 4 3 3 4 4 4 2 2 2 3 3 3 4 3 3 3 4 4 5 4 4 3 3 3 3 4 4 4 4 4 2 3 4 4 5 6 13 13 13 12 12 12 14
4 4 4 4 3 3 3 3 3 3 2 2 2 3 3 2 3 4 4 3 3 4 4 4 3 4 4 3 2 4 4 5 4 4 3 4 3 5 6 7 6 5 7 11 13 13 12
4 4 4 4 3 3 3 3 3 3 2 2 1 1 4 4 2 1 2 3 3 4 3 4 3 4 4 3 4 3 4 4 4 4 5 5 3 2 3 4 4 4 5 6 8 11 13
3 3 3 3 3 3 3 3 3 3 2 2 1 2 2 2 3 2 2 1 2 2 3 3 3 3 2 1 3 4 4 4 4 4 4 2 1 3 4 5 5 5 7 8 8 9 11
3 3 3 3 3 3 3 3 2 2 1 1 2 1 1 2 1 2 2 2 2 2 2 3 2 3 3 1 2 1 3 3 3 4 3 3 2 2 2 6 7 8 9 10 10 11 10
3 3 3 3 3 3 3 2 2 2 2 1 1 0 1 2 2 2 3 2 1 1 3 3 3 2 2 3 3 3 3 3 3 2 2 2 2 2 3 6 6 8 7 10 11 12 13
3 3 3 3 3 3 3 3 2 2 2 1 1 0 1 2 2 2 2 2 2 2 1 3 3 2 3 4 3 3 3 3 3 3 3 2 2 2 2 4 6 10 9 11 11 11 11
3 3 3 3 3 2 2 2 2 3 2 1 1 0 1 1 2 2 2 2 2 2 2 2 3 3 3 2 2 2 3 3 4 3 3 2 2 2 3 6 8 10 9 9 9 9 8
2 3 3 3 2 2 2 2 2 3 2 2 1 1 0 1 3 3 2 1 1 1 1 2 3 2 2 2 1 -0 1 2 2 2 2 3 2 2 3 4 7 7 6 7 8 9 7
2 2 2 2 2 2 2 2 2 2 2 2 1 1 -0 1 3 2 1 2 2 -0 0 1 0 1 1 1 1 1 2 2 1 1 1 1 1 1 3 3 6 4 6 8 9 7 5
2 2 2 2 2 2 2 2 2 2 2 2 1 1 -0 1 2 2 2 1 2 1 0 1 0 -1 -0 -0 0 1 1 1 0 2 1 1 2 2 3 3 4 3 6 5 4 3 4
2 2 2 2 2 2 2 2 2 2 2 2 1 1 0 -0 1 -0 1 1 1 1 1 0 1 -0 1 0 0 0 1 1 1 0 3 2 2 2 3 5 5 4 2 3 3 3 3
Height
884 883 882 880 878 876 874 871 869 866 863 860 856 852 848 844 840 835 829 824 819 815 811 809 806 808 806 801 776 767 766 767 772 774 773 774 775 774 777 774 776 779 773 773 773 773 772
885 884 882 880 878 876 874 871 869 866 863 859 855 851 846 842 837 831 825 819 814 808 803 800 801 803 804 797 766 765 766 767 767 769 769 770 768 767 769 767 770 764 770 768 767 768 770
885 884 882 880 878 876 874 871 869 865 862 858 854 850 845 840 835 829 821 813 806 800 795 793 792 794 792 762 761 763 761 761 762 762 761 763 765 767 764 766 761 760 766 764 763 767 764
885 884 882 880 878 876 873 871 868 865 861 857 852 847 843 837 832 825 817 806 795 789 784 782 784 788 773 757 758 752 758 759 759 758 759 762 765 763 760 756 759 761 761 767 752 755 758
885 884 881 880 877 875 872 869 866 863 859 855 850 846 841 835 828 822 813 802 788 781 780 780 782 783 760 754 751 748 750 752 758 758 758 758 761 758 758 760 760 750 742 752 752 746 751
885 883 881 879 877 874 871 868 865 861 857 854 848 843 838 833 826 818 809 796 783 780 781 780 781 785 760 749 749 746 745 748 750 753 755 754 755 751 751 746 731 739 746 741 737 738 743
886 884 881 879 877 874 871 868 864 860 856 851 846 841 836 831 825 818 808 796 792 782 787 782 774 763 756 752 750 745 745 744 747 749 740 741 747 725 697 723 728 725 724 733 731 732 738
886 883 881 878 876 873 870 867 863 859 855 850 846 841 836 831 824 817 813 809 812 815 789 781 775 769 760 762 751 749 748 741 740 730 730 733 718 683 709 717 728 731 729 724 724 731 742
885 883 881 878 874 872 870 866 862 858 854 850 844 839 834 829 821 818 815 814 812 810 799 765 762 760 762 761 745 734 736 732 725 725 711 704 679 695 703 710 718 717 724 726 724 729 738
884 882 879 877 874 872 869 864 860 856 852 848 842 836 832 826 822 818 813 811 809 807 795 762 754 767 762 751 745 737 730 728 723 714 712 705 686 694 698 699 703 709 711 720 725 734 731
883 881 879 876 873 870 866 863 859 855 851 846 839 834 830 824 821 817 814 809 807 806 791 757 763 766 763 758 752 727 730 721 717 712 711 685 692 693 691 678 694 695 709 713 716 727 729
882 880 877 875 872 869 865 861 857 853 849 844 837 831 827 823 819 815 810 807 805 798 771 770 768 763 753 750 741 741 733 723 710 707 704 697 681 686 677 686 688 693 704 707 713 714 718
880 878 875 873 870 867 863 859 856 852 847 841 834 828 824 820 818 813 810 806 798 790 770 780 775 763 757 745 740 738 729 739 755 716 686 689 692 679 679 683 690 693 706 697 711 712 693
880 878 875 872 869 865 861 857 854 850 846 840 831 825 820 818 816 813 809 800 803 777 784 785 779 770 759 756 750 742 732 739 755 754 733 680 671 685 669 667 680 696 695 681 688 678 680
880 877 874 871 869 865 861 857 853 848 843 837 828 821 818 818 816 814 810 807 793 794 798 793 782 769 762 763 761 749 739 752 760 763 758 733 675 672 674 669 667 676 692 683 695 690 687
878 876 873 869 866 862 859 856 851 847 842 837 830 823 819 818 816 814 810 803 797 802 795 792 791 778 779 773 766 759 754 758 756 754 762 742 722 669 668 670 668 669 672 694 697 691 679
877 875 872 870 865 862 859 854 850 845 840 835 831 823 819 818 815 811 808 805 805 800 798 795 789 787 782 777 770 763 763 757 760 754 755 751 734 695 682 667 663 680 684 682 673 670 669
876 873 871 868 864 861 857 854 849 845 840 835 834 826 819 818 813 816 808 807 805 798 794 792 791 790 783 778 776 767 767 768 765 760 759 755 735 728 706 693 660 657 661 668 668 677 669
874 872 869 866 863 860 857 853 849 844 840 837 834 827 820 818 814 808 808 808 806 799 795 791 790 785 781 780 784 770 766 764 764 760 759 750 745 723 698 690 702 709 699 677 663 667 668
872 869 867 866 863 859 855 851 848 843 839 836 836 830 818 819 821 822 814 803 803 797 795 792 789 784 780 777 775 773 767 764 765 761 754 753 755 753 745 738 734 722 710 706 694 671 661
871 869 867 865 862 857 853 849 846 842 839 837 836 829 829 820 814 815 815 811 802 800 793 792 786 784 787 785 773 766 763 760 759 758 758 760 759 748 743 736 726 717 701 690 687 686 665
870 868 866 863 859 856 852 848 845 841 838 836 834 833 829 821 819 815 807 803 799 795 796 790 789 783 784 784 778 774 768 763 763 756 758 758 754 749 748 716 705 695 682 674 672 669 668
869 866 864 860 856 852 848 845 842 839 837 835 833 831 828 816 813 812 803 802 801 800 789 788 787 786 780 774 772 768 767 762 761 761 758 762 757 747 729 709 706 682 690 672 663 656 653
868 864 862 859 855 850 847 843 839 836 834 833 829 829 825 813 809 805 804 802 798 794 794 786 784 784 777 774 771 763 757 753 752 751 754 757 758 754 742 726 699 673 681 672 663 664 658
866 862 859 856 852 847 843 839 835 832 830 827 825 825 820 812 805 800 797 798 793 791 789 786 780 780 778 775 769 763 748 745 742 745 746 750 751 748 738 705 688 671 683 683 679 677 678
862 859 855 852 847 843 839 834 831 828 825 822 820 818 817 810 794 795 795 796 794 789 787 781 780 780 779 773 769 773 760 755 748 745 743 738 744 748 732 724 688 695 701 688 681 671 683
859 855 852 848 844 840 834 830 826 822 819 817 812 811 809 802 789 793 794 791 791 793 787 783 782 778 778 772 769 765 757 755 753 750 746 746 748 746 734 732 704 716 699 681 675 687 693
856 852 848 844 840 836 830 825 821 816 812 810 804 802 801 794 786 788 788 788 786 788 786 780 782 780 780 777 771 762 761 758 761 748 752 746 742 741 737 734 721 720 701 704 713 706 699
852 848 844 840 835 831 826 821 816 810 805 802 797 795 795 793 786 786 785 782 782 782 783 782 777 779 773 772 772 769 762 760 761 758 742 739 741 742 733 714 716 725 728 722 718 710 698
Wind_Speed
14 14 14 15 15 16 17 18 19 19 20 20 20 22 24 25 28 29 31 31 31 32 33 30 24 18 11 8 15 8 6 8 17 24 26 20 19 17 13 11 14 21 13 12 15 15 16
13 13 14 15 15 16 17 18 19 20 20 21 22 23 25 27 30 31 33 34 36 34 29 24 20 14 12 17 20 17 20 12 16 26 28 26 13 17 7 15 19 9 19 18 12 14 13
12 13 13 14 15 16 17 19 20 21 22 22 23 24 26 29 30 33 35 40 37 35 34 32 24 16 18 28 9 8 13 19 22 26 23 32 25 16 10 10 19 18 19 16 18 14 13
11 12 13 15 16 18 19 20 21 21 21 23 24 24 27 29 31 33 38 40 43 43 29 16 11 14 11 12 20 28 28 11 11 18 23 27 27 19 18 9 6 13 18 16 9 20 14
11 12 14 15 16 17 19 19 20 22 23 25 26 26 26 29 33 34 38 40 41 21 11 6 5 10 12 7 12 19 21 29 19 13 13 19 24 19 16 19 15 19 18 18 15 10 10
11 13 14 16 17 18 19 21 23 21 23 27 29 28 28 28 31 36 36 39 19 5 5 3 1 4 9 4 6 5 7 22 17 11 13 16 10 13 16 17 25 15 16 18 21 13 20
12 13 14 16 18 19 20 21 21 22 24 29 29 29 28 29 30 34 30 19 9 2 10 9 12 17 21 14 15 8 4 12 18 16 22 23 15 20 46 27 19 21 22 25 19 15 16
13 14 16 16 18 18 18 23 21 22 26 28 28 29 28 29 32 26 22 8 9 9 14 18 22 25 32 30 23 20 7 12 15 24 24 16 29 43 23 23 24 21 21 26 16 10 11
14 15 17 17 20 16 20 21 20 23 26 26 27 28 28 26 26 13 19 4 6 14 8 15 7 8 4 16 13 14 23 23 20 23 26 31 38 29 25 20 25 24 25 20 21 13 16
14 16 16 19 18 18 20 20 21 25 24 25 28 29 28 27 10 16 11 5 14 8 5 7 3 5 13 17 4 25 15 26 23 24 26 28 34 18 31 29 27 23 24 24 20 15 10
15 16 16 18 18 19 19 21 23 24 24 26 28 29 26 23 16 10 11 17 16 4 7 7 5 4 22 8 16 4 27 7 24 22 11 26 20 28 23 34 24 23 15 23 18 17 5
14 16 17 18 18 20 21 22 23 24 25 26 28 30 28 19 14 10 18 21 2 4 7 9 10 23 28 10 11 10 8 15 9 19 24 19 18 20 35 24 23 26 15 22 17 14 11
14 16 15 17 18 19 21 22 23 24 25 27 28 31 27 13 7 15 16 9 4 5 15 12 22 28 22 17 19 11 17 20 13 8 17 19 22 23 17 24 21 25 14 7 9 8 12
13 15 16 17 19 20 20 22 24 25 25 27 31 31 21 7 8 12 11 4 4 9 13 16 17 21 16 20 15 17 12 7 16 14 9 7 9 19 15 22 18 15 11 8 13 13 12
13 15 16 17 17 20 22 23 24 24 25 27 31 18 8 5 8 13 4 3 5 8 7 11 19 13 16 16 11 14 10 8 7 17 10 8 6 4 17 16 21 18 15 19 1 2 4
13 14 15 16 17 19 21 23 24 25 25 24 21 12 7 6 15 3 3 5 4 5 10 13 8 9 16 16 14 17 12 10 11 12 9 4 10 12 15 21 20 17 11 10 8 6 14
13 14 15 16 18 18 20 21 23 25 25 21 9 6 2 16 7 1 2 3 5 7 9 4 11 10 9 13 15 12 10 6 13 16 12 11 5 12 11 14 17 11 5 7 8 13 11
13 14 15 17 17 19 18 21 22 24 24 17 6 5 9 13 5 1 4 4 6 10 8 5 5 5 8 13 10 7 10 6 11 15 10 6 4 9 10 22 10 19 14 15 9 12 14
15 16 17 17 16 17 17 20 21 23 22 12 6 4 5 4 4 7 7 10 10 11 9 6 7 6 12 10 7 10 7 13 13 15 11 10 8 9 9 6 11 6 7 10 15 3 16
14 16 16 17 16 18 18 18 21 21 19 11 3 4 3 2 1 2 10 13 6 7 13 7 9 11 10 12 9 11 16 7 16 15 10 8 3 4 5 10 11 11 18 15 9 7 12
14 16 16 16 17 18 19 18 18 19 17 8 0 2 3 5 10 13 15 8 14 7 4 5 6 7 9 7 16 14 17 17 9 9 7 6 6 6 11 19 18 17 17 17 10 10 11
14 15 16 17 17 18 19 19 17 19 16 2 2 3 2 10 9 11 13 4 12 11 4 9 11 16 13 11 16 19 18 15 8 7 10 8 6 12 8 11 12 17 17 16 16 14 14
15 17 18 19 20 21 19 19 19 18 14 3 4 6 3 8 8 9 9 13 6 10 7 6 12 16 16 15 12 14 15 18 17 17 18 10 5 6 6 10 16 6 1 12 7 9 12
16 18 19 19 20 20 22 21 20 18 16 9 9 4 4 9 8 11 16 18 17 15 13 17 15 13 7 12 14 15 17 18 18 16 12 10 8 6 6 10 3 4 8 10 9 13 8
17 19 21 22 22 21 21 22 21 20 19 15 13 3 3 5 10 15 9 12 16 11 15 13 14 6 9 10 7 8 9 4 4 4 4 12 11 4 3 4 7 3 12 12 11 7 15
17 20 21 22 22 23 23 21 21 23 22 17 17 12 5 4 7 8 13 10 10 11 9 6 5 6 4 3 4 3 7 7 5 9 1 9 12 6 4 4 3 8 16 18 9 3 16
19 21 22 22 23 23 22 23 24 25 24 22 20 15 7 5 11 8 7 9 3 4 6 6 4 4 2 2 4 4 4 3 4 7 6 2 5 8 9 3 6 13 19 17 1 5 23
20 22 22 23 23 23 24 25 27 28 26 24 24 16 11 4 10 9 9 8 7 5 8 3 5 1 2 3 3 2 3 3 4 10 9 3 5 3 4 4 5 18 8 8 13 18 17
21 23 23 23 23 24 25 27 29 29 28 24 17 14 13 7 5 9 14 21 21 20 8 4 4 2 3 3 2 2 4 5 6 4 5 1 3 2 4 3 7 12 7 11 14 15 18
Wind_Direction
46 40 34 29 21 16 12 7 1 0 356 354 352 349 346 343 339 334 329 326 322 317 311 306 299 294 295 240 248 214 171 113 178 179 188 188 189 200 204 215 205 227 235 237 245 252 248
42 34 27 21 17 11 6 1 0 356 352 350 349 346 343 340 337 333 329 324 320 316 311 303 301 282 253 252 256 250 245 238 195 196 204 201 209 211 253 227 214 207 233 250 250 250 248
35 27 21 15 9 6 3 0 355 355 350 346 344 341 340 339 339 336 329 324 319 311 304 295 284 254 239 239 233 272 239 238 219 211 210 213 212 197 208 236 233 238 251 245 243 243 252
29 22 14 11 6 3 358 354 351 349 347 342 339 338 337 335 335 334 329 324 318 313 302 289 274 222 248 255 260 254 242 237 215 218 230 217 216 225 227 229 216 221 237 245 242 226 226
19 13 11 4 2 357 352 348 347 347 347 347 344 341 337 334 334 333 330 324 321 318 308 285 190 198 263 282 244 259 238 230 233 227 222 222 216 218 221 228 240 227 233 218 239 207 199
14 7 3 1 357 351 353 353 345 346 350 346 339 337 336 335 334 333 331 332 327 339 349 94 53 224 253 280 262 270 245 222 216 229 220 217 215 215 222 211 221 214 221 234 242 213 222
5 2 359 359 353 353 349 351 346 347 351 345 340 338 336 335 335 333 335 346 6 290 0 284 289 260 296 295 287 249 215 190 204 212 211 203 210 216 222 213 231 239 229 241 239 226 233
0 357 357 355 352 351 349 350 345 349 350 344 341 339 337 337 333 336 349 12 37 307 301 273 261 271 272 285 280 266 254 203 200 214 209 204 214 223 220 217 218 230 237 241 248 206 228
0 357 353 352 346 352 350 346 347 351 347 343 337 333 335 337 330 338 339 342 342 346 284 310 270 264 11 334 264 278 236 239 225 231 214 209 219 229 225 217 217 215 221 224 226 212 226
357 356 351 352 353 353 346 346 351 347 343 341 335 335 337 339 328 329 317 334 323 318 282 277 7 43 330 328 256 304 270 239 240 243 228 229 236 227 217 220 208 220 213 226 236 228 239
356 352 354 350 350 348 348 351 350 343 342 339 333 333 337 334 302 305 303 317 321 194 292 30 11 276 333 338 287 328 330 246 230 230 221 222 225 228 226 221 211 231 211 224 225 222 224
358 358 359 356 356 356 352 351 346 343 343 339 332 329 332 328 308 293 315 319 190 234 262 356 337 332 336 353 354 303 335 306 249 239 240 249 236 227 228 228 218 224 224 221 231 233 241
0 357 355 356 352 351 347 346 345 343 342 339 329 327 327 318 297 313 321 309 279 261 3 356 337 335 328 330 331 344 345 34 34 308 217 226 230 232 224 221 217 207 205 188 210 216 241
2 359 358 356 352 351 349 350 347 345 347 339 329 328 331 330 325 337 329 303 289 330 341 328 328 318 330 356 328 336 357 20 31 13 307 287 212 206 206 209 200 207 195 205 216 228 229
0 355 353 354 350 353 352 348 346 345 343 340 337 333 337 343 343 336 315 297 314 348 323 324 319 328 341 346 335 352 13 33 52 34 3 332 308 136 196 212 205 202 218 223 328 226 260
357 354 352 351 357 353 352 349 349 347 347 344 338 323 311 345 332 305 282 281 309 326 324 320 313 322 330 345 345 351 1 35 7 13 343 295 291 260 210 209 219 204 191 194 209 214 224
354 350 351 349 353 348 349 348 348 350 351 348 332 324 4 336 327 275 290 293 296 281 306 306 311 304 310 346 333 345 13 357 13 337 330 289 265 318 270 198 191 201 196 196 223 228 238
349 344 342 341 342 340 343 349 348 350 353 358 345 317 338 344 313 330 297 300 307 298 304 271 283 276 293 335 319 328 334 345 356 330 325 297 289 305 290 301 260 203 197 197 207 201 227
353 350 350 346 341 341 345 346 346 346 354 346 328 292 321 340 326 334 325 286 299 291 302 300 296 286 308 318 317 299 325 332 344 333 355 337 1 323 349 13 32 3 337 249 220 269 212
2 0 354 348 345 345 344 345 348 353 355 351 339 314 316 340 51 293 319 306 291 296 289 284 275 299 317 311 302 300 309 338 328 320 341 352 336 316 323 311 294 300 305 308 318 204 198
3 358 353 347 343 343 340 341 345 350 355 349 300 311 337 299 315 309 299 271 298 298 248 287 283 285 322 292 310 299 316 322 314 307 341 10 280 288 285 278 277 275 280 287 285 283 238
357 349 341 337 334 332 335 337 338 341 351 326 294 309 257 285 299 298 302 278 285 293 268 294 288 308 303 293 298 298 308 304 307 304 320 331 285 313 272 270 262 287 297 292 274 264 261
346 339 335 333 334 336 336 332 331 334 344 307 298 270 265 278 302 301 309 313 290 306 285 270 301 304 305 310 309 295 286 279 266 275 285 278 271 316 289 319 314 312 45 327 294 255 244
341 338 333 330 328 330 332 332 330 330 330 304 288 280 260 282 292 290 293 298 291 296 288 293 297 292 294 312 299 280 272 270 270 266 249 241 240 249 278 302 279 61 243 286 332 31 339
337 335 332 331 331 332 328 330 327 326 324 312 298 242 267 277 295 291 279 301 302 281 288 282 296 279 316 302 297 315 313 300 356 46 3 220 222 233 244 258 323 298 7 10 357 52 33
334 336 332 328 332 334 333 332 330 324 322 315 298 281 235 276 277 254 297 292 291 303 294 251 281 285 275 278 297 296 321 320 335 334 301 358 212 209 205 252 211 52 338 323 279 207 13
334 333 331 333 330 330 333 331 327 322 323 313 297 280 225 245 268 244 230 285 258 261 269 296 310 293 254 274 286 299 302 334 300 317 339 353 154 215 243 306 286 360 334 313 300 0 325
333 332 332 331 329 330 330 328 323 320 317 314 299 281 230 245 270 245 260 245 246 252 275 306 295 159 210 236 265 296 284 343 293 305 290 246 174 197 235 252 267 9 348 21 319 315 309
331 331 330 329 331 330 329 326 324 322 323 323 305 305 271 252 289 309 266 255 260 263 266 224 251 203 253 243 238 277 264 296 309 298 330 309 343 332 251 301 341 3 355 334 322 312 310